When you browse on this site, cookies collect data to enhance your experience and personalize the content and advertising you see.
Visit our Privacy Policy to learn more. By continuing to use the site, you agree to this use of cookies and data.
  • In Latvia
  • List of Countries
  • For 7 days
  • Water Temperature
  • Satellite Maps
  • Weather Map
  • Weather Widgets
  • user-avatar
    Login

    Hourly Weather Aluksne

    Today, 20 July, Saturday

    Time Temperature Precipitation Wind Pressure Humidity
    00:00 +13°C° 0 mm 2 mps 740 mmHg 94%
    01:00 +13°C° 0 mm 2 mps 741 mmHg 93%
    02:00 +12°C° 0 mm 3 mps 741 mmHg 92%
    03:00 +11°C° 0 mm 3 mps 741 mmHg 92%
    04:00 +12°C° 0 mm 2 mps 741 mmHg 91%
    05:00 +12°C° 0 mm 2 mps 742 mmHg 91%
    06:00 +13°C° 0 mm 2 mps 742 mmHg 85%
    07:00 +15°C° 0 mm 2 mps 742 mmHg 79%
    08:00 +17°C° 0 mm 2 mps 742 mmHg 72%
    09:00 +19°C° 0 mm 3 mps 743 mmHg 64%
    10:00 +21°C° 0 mm 3 mps 743 mmHg 55%
    11:00 +24°C° 0 mm 3 mps 743 mmHg 47%
    12:00 +24°C° 0 mm 3 mps 743 mmHg 46%
    13:00 +25°C° 0 mm 3 mps 743 mmHg 45%
    14:00 +25°C° 0 mm 3 mps 743 mmHg 44%
    15:00 +25°C° 0 mm 3 mps 743 mmHg 48%
    16:00 +25°C° 0 mm 2 mps 743 mmHg 51%
    17:00 +24°C° 0 mm 2 mps 744 mmHg 54%
    18:00 +23°C° 0 mm 2 mps 744 mmHg 63%
    19:00 +20°C° 0 mm 2 mps 744 mmHg 71%
    20:00 +18°C° 0 mm 2 mps 744 mmHg 80%
    21:00 +18°C° 0 mm 1 mps 744 mmHg 84%
    22:00 +15°C° 0 mm 1 mps 744 mmHg 89%
    23:00 +13°C° 0 mm 0 mps 745 mmHg 94%

    Tomorrow, 21 July, Sunday

    Time Temperature Precipitation Wind Pressure Humidity
    00:00 +12°C° 0 mm 0 mps 745 mmHg 94%
    01:00 +13°C° 0 mm 1 mps 745 mmHg 94%
    02:00 +13°C° 0 mm 1 mps 745 mmHg 94%
    03:00 +13°C° 0 mm 1 mps 745 mmHg 92%
    04:00 +12°C° 0 mm 0 mps 745 mmHg 91%
    05:00 +12°C° 0 mm 0 mps 745 mmHg 89%
    06:00 +14°C° 0 mm 0 mps 745 mmHg 80%
    07:00 +17°C° 0 mm 0 mps 745 mmHg 71%
    08:00 +19°C° 0 mm 0 mps 746 mmHg 61%
    09:00 +23°C° 0 mm 1 mps 746 mmHg 56%
    10:00 +24°C° 0 mm 1 mps 746 mmHg 52%
    11:00 +26°C° 0 mm 1 mps 746 mmHg 47%
    12:00 +26°C° 0 mm 1 mps 745 mmHg 45%
    13:00 +27°C° 0 mm 1 mps 745 mmHg 43%
    14:00 +27°C° 0 mm 1 mps 745 mmHg 41%
    15:00 +27°C° 0 mm 1 mps 745 mmHg 42%
    16:00 +26°C° 0 mm 1 mps 744 mmHg 43%
    17:00 +26°C° 0 mm 1 mps 744 mmHg 44%
    18:00 +24°C° 0 mm 1 mps 744 mmHg 55%
    19:00 +22°C° 0 mm 1 mps 744 mmHg 65%
    20:00 +19°C° 0 mm 2 mps 744 mmHg 76%
    21:00 +18°C° 0 mm 2 mps 744 mmHg 78%
    22:00 +17°C° 0 mm 2 mps 744 mmHg 79%
    23:00 +16°C° 0 mm 2 mps 744 mmHg 81%

    Day after tomorrow, 22 July, Monday

    Time Temperature Precipitation Wind Pressure Humidity
    00:00 +15°C° 0 mm 2 mps 744 mmHg 82%
    01:00 +15°C° 0 mm 2 mps 744 mmHg 84%
    02:00 +15°C° 0 mm 2 mps 743 mmHg 86%
    03:00 +15°C° 0 mm 2 mps 743 mmHg 86%
    04:00 +15°C° 0 mm 1 mps 743 mmHg 86%
    05:00 +15°C° 0 mm 1 mps 743 mmHg 87%
    06:00 +16°C° 0 mm 2 mps 743 mmHg 82%
    07:00 +18°C° 0 mm 2 mps 743 mmHg 77%
    08:00 +19°C° 0 mm 2 mps 743 mmHg 72%
    09:00 +20°C° 0 mm 2 mps 743 mmHg 67%
    10:00 +21°C° 0 mm 2 mps 743 mmHg 62%
    11:00 +24°C° 0 mm 3 mps 743 mmHg 58%
    12:00 +23°C° 0.5 mm 2 mps 743 mmHg 62%
    13:00 +23°C° 0.5 mm 2 mps 743 mmHg 66%
    14:00 +23°C° 0.5 mm 2 mps 742 mmHg 71%
    15:00 +21°C° 0.4 mm 2 mps 742 mmHg 75%
    16:00 +22°C° 0.4 mm 1 mps 742 mmHg 79%
    17:00 +19°C° 0.4 mm 0 mps 742 mmHg 84%
    18:00 +20°C° 0.2 mm 1 mps 742 mmHg 85%
    19:00 +20°C° 0.2 mm 1 mps 742 mmHg 87%
    20:00 +19°C° 0.2 mm 1 mps 742 mmHg 88%
    21:00 +18°C° 0 mm 1 mps 742 mmHg 89%
    22:00 +16°C° 0 mm 1 mps 743 mmHg 91%
    23:00 +15°C° 0 mm 1 mps 743 mmHg 92%

    23 July, Tuesday

    Time Temperature Precipitation Wind Pressure Humidity
    00:00 +15°C° 0 mm 1 mps 743 mmHg 92%
    01:00 +14°C° 0 mm 1 mps 743 mmHg 92%
    02:00 +14°C° 0 mm 1 mps 743 mmHg 92%
    03:00 +14°C° 0 mm 1 mps 743 mmHg 91%
    04:00 +13°C° 0 mm 1 mps 743 mmHg 91%
    05:00 +13°C° 0 mm 1 mps 743 mmHg 90%
    06:00 +15°C° 0 mm 1 mps 743 mmHg 84%
    07:00 +18°C° 0 mm 1 mps 743 mmHg 78%
    08:00 +20°C° 0 mm 1 mps 743 mmHg 72%
    09:00 +22°C° 0 mm 1 mps 743 mmHg 62%
    10:00 +23°C° 0 mm 2 mps 743 mmHg 53%
    11:00 +25°C° 0 mm 2 mps 743 mmHg 44%
    12:00 +25°C° 0 mm 2 mps 743 mmHg 44%
    13:00 +25°C° 0 mm 2 mps 743 mmHg 45%
    14:00 +25°C° 0 mm 2 mps 743 mmHg 45%
    15:00 +25°C° 0 mm 2 mps 743 mmHg 47%
    16:00 +25°C° 0 mm 2 mps 742 mmHg 49%
    17:00 +25°C° 0 mm 2 mps 742 mmHg 51%
    18:00 +23°C° 0 mm 2 mps 742 mmHg 57%
    19:00 +21°C° 0 mm 1 mps 742 mmHg 64%
    20:00 +19°C° 0 mm 1 mps 742 mmHg 71%
    21:00 +18°C° 0 mm 1 mps 742 mmHg 71%
    22:00 +16°C° 0 mm 1 mps 742 mmHg 71%
    23:00 +14°C° 0 mm 0 mps 742 mmHg 71%

    24 July, Wednesday

    Time Temperature Precipitation Wind Pressure Humidity
    00:00 +14°C° 0 mm 1 mps 742 mmHg 74%
    01:00 +14°C° 0 mm 1 mps 743 mmHg 77%
    02:00 +14°C° 0 mm 1 mps 743 mmHg 80%
    03:00 +14°C° 0 mm 1 mps 743 mmHg 83%
    04:00 +14°C° 0 mm 1 mps 742 mmHg 87%
    05:00 +14°C° 0 mm 1 mps 742 mmHg 91%
    06:00 +16°C° 0 mm 1 mps 743 mmHg 85%
    07:00 +19°C° 0 mm 1 mps 743 mmHg 79%
    08:00 +21°C° 0 mm 1 mps 743 mmHg 73%
    09:00 +21°C° 0.5 mm 1 mps 743 mmHg 73%
    10:00 +22°C° 0.5 mm 1 mps 743 mmHg 74%
    11:00 +23°C° 0.5 mm 1 mps 743 mmHg 74%
    12:00 +23°C° 0.5 mm 1 mps 743 mmHg 71%
    13:00 +24°C° 0.5 mm 1 mps 742 mmHg 68%
    14:00 +24°C° 0.5 mm 1 mps 742 mmHg 65%
    15:00 +24°C° 0.1 mm 2 mps 742 mmHg 62%
    16:00 +25°C° 0.1 mm 2 mps 742 mmHg 59%
    17:00 +25°C° 0.1 mm 2 mps 742 mmHg 57%
    18:00 +23°C° 0.2 mm 2 mps 742 mmHg 66%
    19:00 +20°C° 0.2 mm 2 mps 742 mmHg 75%
    20:00 +18°C° 0.2 mm 3 mps 742 mmHg 85%
    21:00 +17°C° 0 mm 2 mps 742 mmHg 87%
    22:00 +16°C° 0 mm 2 mps 743 mmHg 90%
    23:00 +15°C° 0 mm 2 mps 743 mmHg 92%

    25 July, Thursday

    Time Temperature Precipitation Wind Pressure Humidity
    00:00 +14°C° 0 mm 2 mps 743 mmHg 92%
    01:00 +14°C° 0 mm 2 mps 743 mmHg 91%
    02:00 +13°C° 0 mm 2 mps 743 mmHg 91%
    03:00 +13°C° 0 mm 2 mps 743 mmHg 91%
    04:00 +13°C° 0 mm 2 mps 743 mmHg 92%
    05:00 +13°C° 0 mm 2 mps 743 mmHg 92%
    06:00 +14°C° 0 mm 2 mps 744 mmHg 84%
    07:00 +15°C° 0 mm 2 mps 744 mmHg 76%
    08:00 +17°C° 0 mm 2 mps 744 mmHg 68%
    09:00 +18°C° 0 mm 3 mps 744 mmHg 61%
    10:00 +20°C° 0 mm 3 mps 744 mmHg 53%
    11:00 +21°C° 0 mm 3 mps 744 mmHg 46%
    12:00 +22°C° 0 mm 3 mps 744 mmHg 45%
    13:00 +22°C° 0 mm 4 mps 744 mmHg 44%
    14:00 +23°C° 0 mm 4 mps 744 mmHg 44%
    15:00 +23°C° 0 mm 4 mps 744 mmHg 46%
    16:00 +23°C° 0 mm 4 mps 745 mmHg 49%
    17:00 +24°C° 0 mm 3 mps 745 mmHg 51%
    18:00 +21°C° 0 mm 3 mps 745 mmHg 58%
    19:00 +19°C° 0 mm 2 mps 745 mmHg 64%
    20:00 +17°C° 0 mm 2 mps 745 mmHg 70%
    21:00 +16°C° 0 mm 2 mps 745 mmHg 73%
    22:00 +15°C° 0 mm 2 mps 746 mmHg 75%
    23:00 +14°C° 0 mm 2 mps 746 mmHg 77%
    Show more